Aérodrome :
LOGIN :

S'inscrire | Disclaimer

   EN    FR    IT 

 










Légende :    VFR   VFR Marginal   IFR   IFR Intensif   IFR Très Intensif
Visi : 
Plafond : 
>= 8 km
>= 3000ft
5 à 8 km
1000 à 3000 ft
1500m à 5 km
500 à 1000 ft
800 à 1500m
200 à 500 ft
< 800m
< 200 ft
Symboles :   Orages  Brouillard  Fortes neiges  Fortes précipitations  Vent > 20 kt
SIGMETs :   Divers  Orages  Givrage  Turbulence  Onde Orograph.  Cendres Volcan.







- Altitude de l'aérodrome : 47 ft
- Code IATA : BDS


LIBR - Casale Arpt. Brindisi

DERNIER METAR :
  • 280945Z 09012KT CAVOK 31/24 Q1010 NOSIG

METARs EXPIRÉS :
  • 280915Z 09013KT CAVOK 31/23 Q1010 NOSIG
  • 280845Z 09012KT 9999 FEW050 30/20 Q1010 NOSIG
  • 280815Z 08011KT CAVOK 30/20 Q1010 NOSIG
  • 280745Z 24004KT CAVOK 31/18 Q1010 NOSIG
  • 280715Z 25008KT CAVOK 30/19 Q1010 NOSIG

TAF TAF LIBR
Valide du 28 à 06h jusqu'au 29 à 06h UTC


280500Z 2806/2906 15008KT 9999 FEW020
TEMPO 2809/2813 10011KT
Pas de NOTAMs connus pour ce terrain.



MET'MAP, la Météo Aéronautique d'un coup d'oeil ! - Copyright ORBIFLY Décembre 2007 - Disclaimer

ORBIFLY MET'MAP TEAM :

Programmation & Développement : Alexandra Zaïnal
Conception & Développement : Baudouin d'Aumeries
Co-Programmation & Développement : Marc-Olivier Méhu
Soutien technique & logistique : Manuel Goepfert

Contact : metmap@orbifly.com




SOURCES & CREDITS :

   NOAA